Weather History for KGKJ - February, 2012

Change the Weather History Date:

Monday, February 20, 2012

  Actual Average (KERI) Record (KERI)
Temperature  
Mean Temperature 29 °F 29 °F  
Max Temperature 37 °F 36 °F 66 °F (1930)
Min Temperature 21 °F 22 °F -8 °F (1934)
Degree Days  
Heating Degree Days 36 36  
Month to date heating degree days 746  
Since 1 July heating degree days 4084  
Cooling Degree Days 0 0  
Month to date cooling degree days 0  
Year to date cooling degree days 0  
Moisture  
Dew Point 17 °F    
Average Humidity 62    
Maximum Humidity 82    
Minimum Humidity 43    
Precipitation  
Precipitation 0.00 in 0.08 in - ()
Month to date precipitation 1.66  
Year to date precipitation 4.61  
Snow  
Snow 0.00 in 0.60 in - ()
Month to date snowfall 13.4  
Since 1 July snowfall 79.2  
Snow Depth -    
Sea Level Pressure  
Sea Level Pressure 30.28 in    
Wind  
Wind Speed 4 mph (NNE)    
Max Wind Speed 9 mph    
Max Gust Speed -    
Visibility 10 miles    
Events      
T = Trace of Precipitation, MM = Missing Value Source: NWS Daily Summary

Daily Weather History Graph

Daily Weather History Graph

Search for Another Location

Airport or City:

Trip Planner

Search our weather history database for the weather conditions in past years. The results will help you decide how hot, cold, wet, or windy it might be!

Date:

Astronomy

Feb. 20, 2012 Rise Set
Actual Time 7:09 AM EST 5:59 PM EST
Civil Twilight 6:41 AM EST 6:28 PM EST
Nautical Twilight 6:09 AM EST 7:00 PM EST
Astronomical Twilight 5:37 AM EST 7:32 PM EST
Moon 6:06 AM EST (2/20) 5:02 PM EST (2/20)
Length of Visible Light 11h 46m
Length of Day
10h 49m
Waning Crescent, 2% of the Moon is Illuminated
Feb 20
Waning Crescent
Feb 21
New
Feb 29
First Quarter
Mar 8
Full
Mar 14
Last Quarter

Hourly Weather History & Observations

Time (EST) Temp. Windchill Dew Point Humidity Pressure Visibility Wind Dir Wind Speed Gust Speed Precip Events Conditions
12:53 AM 26.1 °F 21.9 °F 18.0 °F 71% 30.15 in 10.0 mi North 3.5 mph - N/A   Overcast
1:53 AM 26.1 °F 18.4 °F 19.0 °F 75% 30.16 in 10.0 mi North 6.9 mph - N/A   Overcast
2:53 AM 26.1 °F 16.8 °F 18.0 °F 71% 30.18 in 10.0 mi NNE 9.2 mph - N/A   Overcast
3:53 AM 25.0 °F 18.1 °F 18.0 °F 75% 30.19 in 10.0 mi NNE 5.8 mph - N/A   Overcast
4:53 AM 24.1 °F 18.2 °F 17.1 °F 75% 30.23 in 10.0 mi North 4.6 mph - N/A   Overcast
5:53 AM 21.0 °F 14.6 °F 16.0 °F 81% 30.23 in 10.0 mi NNE 4.6 mph - N/A   Scattered Clouds
6:53 AM 21.0 °F - 16.0 °F 81% 30.26 in 10.0 mi Calm Calm - N/A   Clear
7:53 AM 21.9 °F - 17.1 °F 82% 30.29 in 10.0 mi Calm Calm - N/A   Clear
8:53 AM 24.1 °F 18.2 °F 17.1 °F 75% 30.32 in 10.0 mi North 4.6 mph - N/A   Clear
9:53 AM 26.1 °F - 17.1 °F 69% 30.35 in 10.0 mi Calm Calm - N/A   Clear
10:53 AM 30.0 °F - 19.0 °F 64% 30.36 in 10.0 mi Calm Calm - N/A   Clear
11:53 AM 32.0 °F 24.8 °F 17.1 °F 54% 30.37 in 10.0 mi North 8.1 mph - N/A   Clear
12:53 PM 33.1 °F - 18.0 °F 54% 30.35 in 10.0 mi Calm Calm - N/A   Clear
1:53 PM 36.0 °F 33.3 °F 19.0 °F 50% 30.32 in 10.0 mi NE 3.5 mph - N/A   Clear
2:53 PM 37.9 °F 32.1 °F 18.0 °F 45% 30.31 in 10.0 mi East 8.1 mph - N/A   Clear
3:53 PM 37.9 °F - 17.1 °F 43% 30.30 in 10.0 mi Calm Calm - N/A   Clear
4:53 PM 37.9 °F 34.4 °F 17.1 °F 43% 30.30 in 10.0 mi South 4.6 mph - N/A   Clear
6:53 PM 35.1 °F - 15.1 °F 44% 30.28 in 10.0 mi Calm Calm - N/A   Clear
7:53 PM 33.1 °F - 15.1 °F 48% 30.29 in 10.0 mi Calm Calm - N/A   Clear
8:53 PM 33.1 °F 28.7 °F 15.1 °F 48% 30.30 in 10.0 mi SSW 4.6 mph - N/A   Clear
9:53 PM 28.9 °F - 17.1 °F 61% 30.30 in 10.0 mi Calm Calm - N/A   Clear
10:53 PM 30.0 °F - 17.1 °F 59% 30.27 in 10.0 mi Calm Calm - N/A   Clear
11:53 PM 30.9 °F - 17.1 °F 57% 30.23 in 10.0 mi Calm Calm - N/A   Clear